Simultaneous Nadir Overpasses (SNOs) Predictions

Prediction of SNOs between METOP-B and TERRA Satellite Orbit:

Table of predicted SNOs for the next 14.0 days since TLE Epoch: 2/10/2024
Index Date (METOP-B) Time (METOP-B) Lat,Lon (METOP-B) SZA (METOP-B ) Date (TERRA) Time (TERRA) Lat,Lon (TERRA) SZA (TERRA ) Distance(km) Time Diff (sec)
1 02/11/2024 02:33:35 -80.42, -13.30 84.76 02/11/2024 02:34:31 -80.42, -13.44 84.76 2.55 56
2 02/11/2024 03:24:12 80.51, 155.12 95.38 02/11/2024 03:23:49 80.50, 155.02 95.36 1.83 23
3 02/13/2024 17:54:37 80.39, -63.95 94.32 02/13/2024 17:55:06 80.40, -63.80 94.34 2.93 29
4 02/13/2024 18:45:12 -80.55, 105.46 85.42 02/13/2024 18:44:24 -80.55, 105.29 85.45 3.12 48
5 02/16/2024 09:15:37 -80.46,-113.35 86.47 02/16/2024 09:15:41 -80.46,-113.41 86.47 1.27 4
6 02/16/2024 10:05:10 81.40, 78.92 96.44 02/16/2024 10:03:57 81.88, 78.40 96.69 53.96 73
7 02/18/2024 23:46:01 -80.39, 28.11 87.50 02/18/2024 23:46:57 -80.38, 27.98 87.51 2.64 56
8 02/19/2024 00:36:37 80.49,-163.22 92.67 02/19/2024 00:36:14 80.48,-163.36 92.65 2.81 23
9 02/21/2024 15:07:01 80.41, -21.87 91.60 02/21/2024 15:07:29 80.41, -21.92 91.60 0.95 28



Historial Predications of SNOs between METOP-B and TERRA
